sat.trackr.live / text

‹ back to catalog

STARLINK-11364 [DTC]

NORAD 61543 · 2024-184M

PAYLOAD ACTIVE UNKNOWN

§ Identity

Operator
Country
US
Launch date
2024-10-15
Launch site
AFWTR
Launch vehicle
Mass (kg)
RCS (m²)

Purposes: comms

External: N2YO · Heavens-Above · Gunter

§ Orbital elements

Epoch: 2026-09-21T14:15:28.966464Z

Period
91.74 min
Inclination
53.1589°
Eccentricity
0.0001133
Mean motion
15.69697152 rev/d
Perigee alt
359.0 km
Apogee alt
360.5 km
Semi-major
6,737.9 km
B*
-9.3893e-6
RAAN
350.7209°
Arg perigee
73.6923°
Mean anomaly
286.4219°
Rev number
11,118

§ Raw data

STARLINK-11364 [DTC]1 61543U 24184M   26264.59408526 -.00001725  00000+0 -93893-5 0  99902 61543  53.1589 350.7209 0001133  73.6923 286.4219 15.69697152111181

JSON: /api/v1/satellites/61543 · /tle

For live sub-satellite position, see the globe view (requires WebGL).

§ Visibility from observer

Set your observer location to see the next 7 days of passes ≥ 10°. The values pass through the URL so the page stays shareable.

No JS? Fill the form by hand. The geolocation button needs JavaScript.